This is the latest recevied weather packets stored in our database for station/object 4S6DRJ-13. If no packets are shown the sender has not sent any weather packets the latest 10 day(s).
| Time | Temp. | Humidity | Pressure | Rain* | Wind** | Luminosity | Snow |
|---|---|---|---|---|---|---|---|
| 1788414181 | 31.11° C | 69% | 1009.9 hPa | 0 mm | 2.68 m/s, 290° | 1121 W/m² | - |
| 1788414120 | 31.11° C | 68% | 1009.9 hPa | 0 mm | 2.68 m/s, 303° | 1124 W/m² | - |
| 1788414058 | 31.11° C | 67% | 1010 hPa | 0 mm | 2.68 m/s, 215° | 1108 W/m² | - |
| 1788413998 | 31.11° C | 69% | 1009.9 hPa | 0 mm | 1.79 m/s, 200° | 1126 W/m² | - |
| 1788413937 | 31.11° C | 68% | 1009.9 hPa | 0 mm | 2.24 m/s, 358° | 1124 W/m² | - |
| 1788413876 | 31.11° C | 69% | 1010 hPa | 0 mm | 1.79 m/s, 205° | 246 W/m² | - |
| 1788413814 | 31.11° C | 70% | 1010.1 hPa | 0 mm | 2.68 m/s, 310° | 1120 W/m² | - |
| 1788413754 | 31.11° C | 71% | 1010 hPa | 0 mm | 1.34 m/s, 300° | 799 W/m² | - |
| 1788413693 | 31.11° C | 70% | 1010 hPa | 0 mm | 1.79 m/s, 162° | 1127 W/m² | - |
| 1788413631 | 30.56° C | 71% | 1010 hPa | 0 mm | 1.79 m/s, 179° | 1124 W/m² | - |
| 1788413571 | 30.56° C | 71% | 1010 hPa | 0 mm | 1.34 m/s, 348° | 1125 W/m² | - |
| 1788413510 | 30.56° C | 70% | 1010 hPa | 0 mm | 2.24 m/s, 232° | 1124 W/m² | - |
| 1788413449 | 30.56° C | 72% | 1010 hPa | 0 mm | 2.68 m/s, 233° | 1126 W/m² | - |
| 1788413388 | 30.56° C | 72% | 1010 hPa | 0 mm | 1.34 m/s, 288° | 544 W/m² | - |
| 1788413327 | 30.56° C | 72% | 1009.9 hPa | 0 mm | 1.34 m/s, 252° | 708 W/m² | - |
| 1788413266 | 30.56° C | 71% | 1010 hPa | 0 mm | 3.58 m/s, 259° | 1114 W/m² | - |
| 1788413205 | 30.56° C | 72% | 1010 hPa | 0 mm | 2.68 m/s, 266° | 831 W/m² | - |
| 1788413145 | 30.56° C | 72% | 1009.8 hPa | 0 mm | 0.89 m/s, 179° | 1112 W/m² | - |
| 1788413083 | 31.11° C | 71% | 1010 hPa | 0 mm | 2.68 m/s, 233° | 355 W/m² | - |
| 1788413022 | 31.11° C | 71% | 1009.9 hPa | 0 mm | 2.68 m/s, 320° | 618 W/m² | - |
| 1788412961 | 31.11° C | 72% | 1010 hPa | 0 mm | 1.79 m/s, 14° | 1102 W/m² | - |
| 1788412900 | 31.11° C | 73% | 1010 hPa | 0 mm | 1.34 m/s, 315° | 1134 W/m² | - |
| 1788412839 | 31.11° C | 72% | 1010 hPa | 0 mm | 1.34 m/s, 281° | 690 W/m² | - |
| 1788412778 | 31.11° C | 71% | 1009.8 hPa | 0 mm | 3.13 m/s, 236° | 1128 W/m² | - |
| 1788412717 | 30.56° C | 72% | 1010.1 hPa | 0 mm | 0.89 m/s, 245° | 312 W/m² | - |
* Rain latest hour (hover to see other rain measurements)
** Current wind speed in m/s (hover to see current wind gust speed)